Weather History for El Dorado, AR

Change the Weather History Date:

Monday, August 4, 2014

  Actual Average Record
Temperature  
Mean Temperature 80 °F 82 °F  
Max Temperature 91 °F 93 °F 108 °F (2011)
Min Temperature 69 °F 71 °F 55 °F (1920)
Degree Days  
Heating Degree Days 0 0  
Month to date heating degree days 0 0  
Since 1 June heating degree days 0 0  
Since 1 July heating degree days 0 0  
Cooling Degree Days 15 17  
Month to date cooling degree days 39 68  
Year to date cooling degree days 1099 1291  
Since 1 June cooling degree days 847 980  
Growing Degree Days 29 (Base 50)    
Moisture  
Dew Point 71 °F    
Average Humidity 76    
Maximum Humidity 100    
Minimum Humidity 52    
Precipitation  
Precipitation 0.00 in 0.11 in 1.37 in (1957)
Month to date precipitation 0.94 0.43  
Year to date precipitation 28.70 31.87  
Snow  
Snow 0.00 in - - ()
Month to date snowfall 0.0  
Since 1 June snowfall 0.0  
Since 1 July snowfall 0.0  
Snow Depth 0.00 in    
Sea Level Pressure  
Sea Level Pressure 30.03 in    
Wind  
Wind Speed 4 mph (NNE)    
Max Wind Speed 14 mph    
Max Gust Speed 20 mph    
Visibility 8 miles    
Events      
T = Trace of Precipitation, MM = Missing Value Source: NWS Daily Summary

Daily Weather History Graph

Daily Weather History Graph

Search for Another Location

Airport:

Trip Planner

Search our weather history database for the weather conditions in past years. The results will help you decide how hot, cold, wet, or windy it might be!

Date:

Astronomy

Aug. 04, 2014 Rise Set
Actual Time 6:26 AM CDT 8:07 PM CDT
Civil Twilight 5:59 AM CDT 8:34 PM CDT
Nautical Twilight 5:27 AM CDT 9:06 PM CDT
Astronomical Twilight 4:52 AM CDT 9:40 PM CDT
Moon 2:21 PM CDT (8/4) 12:30 AM CDT (8/4)
Length of Visible Light 14h 35m
Length of Day
13h 41m
First Quarter, 57% of the Moon is Illuminated
Aug 4
First Quarter
Aug 10
Full
Aug 17
Last Quarter
Aug 25
New
Sep 2
First Quarter

Hourly Weather History & Observations

Time (CDT) Temp. Heat Index Dew Point Humidity Pressure Visibility Wind Dir Wind Speed Gust Speed Precip Events Conditions
12:53 AM 72.0 °F - 71.1 °F 97% 30.03 in 5.0 mi North 5.8 mph - N/A   Clear
1:53 AM 72.0 °F - 71.1 °F 97% 30.02 in 6.0 mi North 6.9 mph - N/A   Clear
2:53 AM 72.0 °F - 69.1 °F 91% 30.02 in 8.0 mi NNE 3.5 mph - N/A   Scattered Clouds
4:53 AM 69.8 °F - 66.2 °F 88% 30.04 in 8.0 mi North 3.5 mph - N/A   Mostly Cloudy
5:53 AM 70.0 °F - 66.9 °F 90% 30.04 in 7.0 mi Calm Calm - N/A   Overcast
6:53 AM 69.1 °F - 66.9 °F 93% 30.05 in 5.0 mi Calm Calm - N/A   Partly Cloudy
7:53 AM 72.0 °F - 66.9 °F 84% 30.06 in 6.0 mi NNE 3.5 mph - N/A   Haze
8:53 AM 73.9 °F - 68.0 °F 82% 30.07 in 7.0 mi NE 6.9 mph - N/A   Overcast
9:53 AM 79.0 °F - 70.0 °F 74% 30.06 in 7.0 mi NE 5.8 mph - N/A   Clear
10:53 AM 82.9 °F 88.0 °F 72.0 °F 69% 30.06 in 9.0 mi ENE 5.8 mph - N/A   Clear
11:53 AM 84.9 °F 90.7 °F 72.0 °F 65% 30.07 in 9.0 mi NNE 8.1 mph - N/A   Mostly Cloudy
12:53 PM 88.0 °F 94.7 °F 72.0 °F 59% 30.05 in 10.0 mi NE 6.9 mph - N/A   Clear
1:53 PM 88.0 °F 93.8 °F 71.1 °F 57% 30.04 in 10.0 mi NNE 9.2 mph - N/A   Scattered Clouds
2:53 PM 89.1 °F 95.0 °F 71.1 °F 55% 30.01 in 10.0 mi North 5.8 mph - N/A   Partly Cloudy
3:53 PM 89.1 °F 94.1 °F 70.0 °F 53% 30.00 in 10.0 mi NE 5.8 mph - N/A   Partly Cloudy
4:53 PM 89.1 °F 95.0 °F 71.1 °F 55% 29.99 in 10.0 mi North 6.9 mph - N/A   Clear
5:53 PM 88.0 °F 93.8 °F 71.1 °F 57% 29.99 in 10.0 mi North 6.9 mph - N/A   Partly Cloudy
6:53 PM 86.0 °F 92.2 °F 72.0 °F 63% 30.00 in 10.0 mi NE 4.6 mph - N/A   Clear
7:53 PM 82.0 °F 87.4 °F 73.0 °F 74% 30.01 in 9.0 mi NE 3.5 mph - N/A   Partly Cloudy
8:53 PM 77.0 °F - 73.9 °F 90% 30.02 in 8.0 mi Calm Calm - N/A   Clear
9:53 PM 73.9 °F - 73.0 °F 97% 30.03 in 6.0 mi Calm Calm - N/A   Partly Cloudy
10:53 PM 73.9 °F - 73.0 °F 97% 30.03 in 7.0 mi Calm Calm - N/A   Clear
11:53 PM 73.0 °F - 72.0 °F 96% 30.04 in 5.0 mi Calm Calm - N/A   Clear